Météo par heure à Juchitlán

Ce jour, 20 Juin, Dimanche

Heure Température Précipitation Vent Pression Humidité
00:00 +19°C° 0 mm 1 m/s 648 mmHg 94%
01:00 +19°C° 0 mm 1 m/s 648 mmHg 93%
02:00 +17°C° 0 mm 0 m/s 648 mmHg 93%
03:00 +17°C° 0 mm 0 m/s 648 mmHg 93%
04:00 +17°C° 0 mm 0 m/s 648 mmHg 93%
05:00 +17°C° 0 mm 0 m/s 648 mmHg 92%
06:00 +18°C° 0 mm 0 m/s 649 mmHg 88%
07:00 +19°C° 0 mm 0 m/s 649 mmHg 84%
08:00 +20°C° 0 mm 0 m/s 650 mmHg 80%
09:00 +23°C° 0.1 mm 1 m/s 650 mmHg 74%
10:00 +25°C° 0.1 mm 1 m/s 650 mmHg 67%
11:00 +26°C° 0.1 mm 2 m/s 650 mmHg 60%
12:00 +27°C° 0.3 mm 2 m/s 650 mmHg 57%
13:00 +27°C° 0.3 mm 2 m/s 650 mmHg 55%
14:00 +28°C° 0.3 mm 3 m/s 649 mmHg 52%
15:00 +27°C° 0.1 mm 3 m/s 649 mmHg 55%
16:00 +27°C° 0.1 mm 3 m/s 649 mmHg 58%
17:00 +26°C° 0.1 mm 3 m/s 649 mmHg 61%
18:00 +25°C° 0.1 mm 2 m/s 649 mmHg 68%
19:00 +24°C° 0.1 mm 2 m/s 649 mmHg 75%
20:00 +21°C° 0.1 mm 2 m/s 649 mmHg 82%
21:00 +22°C° 0 mm 1 m/s 649 mmHg 84%
22:00 +22°C° 0 mm 1 m/s 649 mmHg 85%
23:00 +21°C° 0 mm 1 m/s 649 mmHg 87%

Demain, 21 Juin, Lundi

Heure Température Précipitation Vent Pression Humidité
00:00 +21°C° 0 mm 1 m/s 649 mmHg 87%
01:00 +21°C° 0 mm 1 m/s 649 mmHg 86%
02:00 +19°C° 0 mm 0 m/s 648 mmHg 86%
03:00 +19°C° 0 mm 0 m/s 648 mmHg 87%
04:00 +18°C° 0 mm 0 m/s 648 mmHg 87%
05:00 +18°C° 0 mm 0 m/s 648 mmHg 88%
06:00 +19°C° 0 mm 0 m/s 649 mmHg 82%
07:00 +21°C° 0 mm 0 m/s 649 mmHg 76%
08:00 +22°C° 0 mm 0 m/s 650 mmHg 70%
09:00 +24°C° 0 mm 0 m/s 650 mmHg 62%
10:00 +27°C° 0 mm 1 m/s 650 mmHg 54%
11:00 +29°C° 0 mm 1 m/s 650 mmHg 47%
12:00 +30°C° 0 mm 1 m/s 650 mmHg 44%
13:00 +30°C° 0 mm 2 m/s 649 mmHg 42%
14:00 +31°C° 0 mm 2 m/s 649 mmHg 39%
15:00 +30°C° 0 mm 3 m/s 648 mmHg 44%
16:00 +29°C° 0 mm 3 m/s 648 mmHg 48%
17:00 +28°C° 0 mm 4 m/s 648 mmHg 52%
18:00 +27°C° 0.1 mm 3 m/s 648 mmHg 59%
19:00 +26°C° 0.1 mm 3 m/s 648 mmHg 67%
20:00 +24°C° 0.1 mm 2 m/s 648 mmHg 74%
21:00 +24°C° 0.3 mm 2 m/s 648 mmHg 78%
22:00 +23°C° 0.3 mm 2 m/s 648 mmHg 83%
23:00 +23°C° 0.3 mm 2 m/s 648 mmHg 88%

Après-demain, 22 Juin, Mardi

Heure Température Précipitation Vent Pression Humidité
00:00 +22°C° 0.6 mm 1 m/s 648 mmHg 88%
01:00 +22°C° 0.6 mm 1 m/s 648 mmHg 89%
02:00 +22°C° 0.6 mm 1 m/s 647 mmHg 89%
03:00 +22°C° 0.9 mm 1 m/s 647 mmHg 89%
04:00 +22°C° 0.9 mm 1 m/s 647 mmHg 89%
05:00 +22°C° 0.9 mm 1 m/s 647 mmHg 89%
06:00 +20°C° 0.4 mm 0 m/s 648 mmHg 87%
07:00 +20°C° 0.4 mm 0 m/s 648 mmHg 86%
08:00 +21°C° 0.4 mm 0 m/s 648 mmHg 84%
09:00 +23°C° 0.4 mm 1 m/s 648 mmHg 80%
10:00 +24°C° 0.4 mm 1 m/s 648 mmHg 77%
11:00 +24°C° 0.4 mm 1 m/s 648 mmHg 73%
12:00 +25°C° 0.2 mm 1 m/s 648 mmHg 69%
13:00 +26°C° 0.2 mm 1 m/s 648 mmHg 65%
14:00 +26°C° 0.2 mm 1 m/s 648 mmHg 62%
15:00 +26°C° 0.6 mm 1 m/s 647 mmHg 62%
16:00 +26°C° 0.6 mm 1 m/s 647 mmHg 63%
17:00 +26°C° 0.6 mm 1 m/s 647 mmHg 64%
18:00 +25°C° 0.8 mm 1 m/s 647 mmHg 69%
19:00 +24°C° 0.8 mm 1 m/s 647 mmHg 75%
20:00 +23°C° 0.8 mm 1 m/s 647 mmHg 80%
21:00 +23°C° 1.3 mm 1 m/s 647 mmHg 82%
22:00 +23°C° 1.3 mm 1 m/s 648 mmHg 83%
23:00 +22°C° 1.3 mm 1 m/s 648 mmHg 85%

23 Juin, Mercredi

Heure Température Précipitation Vent Pression Humidité
00:00 +22°C° 1.4 mm 1 m/s 648 mmHg 85%
01:00 +22°C° 1.4 mm 1 m/s 647 mmHg 86%
02:00 +22°C° 1.4 mm 1 m/s 647 mmHg 87%
03:00 +22°C° 0.9 mm 1 m/s 647 mmHg 87%
04:00 +19°C° 0.9 mm 0 m/s 647 mmHg 88%
05:00 +19°C° 0.9 mm 0 m/s 647 mmHg 89%
06:00 +20°C° 0.5 mm 0 m/s 648 mmHg 85%
07:00 +21°C° 0.5 mm 0 m/s 649 mmHg 81%
08:00 +23°C° 0.5 mm 1 m/s 649 mmHg 77%
09:00 +24°C° 0.7 mm 1 m/s 649 mmHg 72%
10:00 +25°C° 0.7 mm 1 m/s 649 mmHg 67%
11:00 +27°C° 0.7 mm 1 m/s 649 mmHg 62%
12:00 +27°C° 0.7 mm 1 m/s 649 mmHg 61%
13:00 +27°C° 0.7 mm 1 m/s 649 mmHg 60%
14:00 +27°C° 0.7 mm 1 m/s 648 mmHg 58%
15:00 +27°C° 1 mm 1 m/s 648 mmHg 64%
16:00 +26°C° 1 mm 1 m/s 648 mmHg 69%
17:00 +25°C° 1 mm 1 m/s 648 mmHg 74%
18:00 +24°C° 0.2 mm 1 m/s 648 mmHg 77%
19:00 +23°C° 0.2 mm 1 m/s 648 mmHg 81%
20:00 +23°C° 0.2 mm 1 m/s 648 mmHg 84%
21:00 +23°C° 0.7 mm 1 m/s 648 mmHg 85%
22:00 +22°C° 0.7 mm 1 m/s 649 mmHg 86%
23:00 +22°C° 0.7 mm 1 m/s 649 mmHg 88%

24 Juin, Jeudi

Heure Température Précipitation Vent Pression Humidité
00:00 +22°C° 2 mm 1 m/s 648 mmHg 86%
01:00 +22°C° 2 mm 1 m/s 648 mmHg 85%
02:00 +20°C° 2 mm 0 m/s 648 mmHg 83%
03:00 +20°C° 2.4 mm 0 m/s 648 mmHg 86%
04:00 +19°C° 2.4 mm 0 m/s 648 mmHg 88%
05:00 +19°C° 2.4 mm 0 m/s 648 mmHg 91%
06:00 +19°C° 1.7 mm 0 m/s 648 mmHg 90%
07:00 +21°C° 1.7 mm 1 m/s 649 mmHg 89%
08:00 +21°C° 1.7 mm 1 m/s 649 mmHg 88%
09:00 +22°C° 0.8 mm 1 m/s 649 mmHg 83%
10:00 +23°C° 0.8 mm 1 m/s 649 mmHg 79%
11:00 +24°C° 0.8 mm 1 m/s 649 mmHg 74%
12:00 +25°C° 1.1 mm 1 m/s 649 mmHg 71%
13:00 +25°C° 1.1 mm 1 m/s 648 mmHg 68%
14:00 +26°C° 1.1 mm 1 m/s 648 mmHg 64%
15:00 +25°C° 0.6 mm 1 m/s 647 mmHg 68%
16:00 +25°C° 0.6 mm 1 m/s 647 mmHg 71%
17:00 +24°C° 0.6 mm 2 m/s 647 mmHg 74%
18:00 +24°C° 0.9 mm 1 m/s 647 mmHg 77%
19:00 +23°C° 0.9 mm 1 m/s 647 mmHg 79%
20:00 +22°C° 0.9 mm 1 m/s 647 mmHg 81%
21:00 +22°C° 0.8 mm 1 m/s 647 mmHg 83%
22:00 +21°C° 0.8 mm 2 m/s 648 mmHg 85%
23:00 +20°C° 0.8 mm 2 m/s 648 mmHg 87%

25 Juin, Vendredi

Heure Température Précipitation Vent Pression Humidité
00:00 +20°C° 0.3 mm 2 m/s 647 mmHg 87%
01:00 +20°C° 0.3 mm 2 m/s 647 mmHg 87%
02:00 +21°C° 0.3 mm 1 m/s 646 mmHg 87%
03:00 +21°C° 0 mm 1 m/s 646 mmHg 87%
04:00 +20°C° 0 mm 1 m/s 646 mmHg 87%
05:00 +20°C° 0 mm 1 m/s 646 mmHg 87%
06:00 +21°C° 0 mm 1 m/s 646 mmHg 81%
07:00 +23°C° 0 mm 1 m/s 647 mmHg 74%
08:00 +24°C° 0 mm 2 m/s 647 mmHg 68%
09:00 +26°C° 0 mm 2 m/s 647 mmHg 61%
10:00 +27°C° 0 mm 2 m/s 647 mmHg 53%
11:00 +29°C° 0 mm 2 m/s 647 mmHg 46%
12:00 +29°C° 0.1 mm 2 m/s 647 mmHg 45%
13:00 +29°C° 0.1 mm 2 m/s 646 mmHg 45%
14:00 +30°C° 0.1 mm 2 m/s 646 mmHg 44%
15:00 +29°C° 0.5 mm 2 m/s 645 mmHg 49%
16:00 +28°C° 0.5 mm 2 m/s 645 mmHg 53%
17:00 +27°C° 0.5 mm 2 m/s 644 mmHg 58%
18:00 +25°C° 1.1 mm 2 m/s 645 mmHg 67%
19:00 +23°C° 1.1 mm 2 m/s 645 mmHg 76%
20:00 +21°C° 1.1 mm 2 m/s 646 mmHg 84%
21:00 +20°C° 0.7 mm 2 m/s 646 mmHg 85%
22:00 +21°C° 0.7 mm 1 m/s 646 mmHg 86%
23:00 +19°C° 0.7 mm 0 m/s 646 mmHg 86%
Voir plus

Nous avons besoin de votre consentement

Meteoprog et ses fournisseurs de services peuvent stocker et accéder à des données personnelles telles que des cookies, des identifiants d'appareils ou d'autres technologies similaires sur votre appareil et traiter ces données pour personnaliser le contenu et les publicités, ainsi que pour fournir des fonctionnalités de médias sociaux et analyser le trafic.

  • Stocker et/ou accéder à des informations sur votre appareil

    Des cookies, des identifiants d'appareils ou d'autres informations peuvent être stockés ou accessibles sur votre appareil aux fins indiquées ci-dessus.

  • Annonces et contenus personnalisés, mesure des annonces et des contenus, connaissance de l'audience et développement de produits

    Les annonces et le contenu peuvent être personnalisés en fonction d'un profil. D'autres données peuvent être ajoutées pour mieux personnaliser les annonces et le contenu. Les performances des publicités et du contenu peuvent être mesurées. Il est possible d'obtenir des informations sur le public qui a vu les publicités et le contenu. Ces données peuvent être utilisées pour développer ou améliorer l'expérience de l'utilisateur, les systèmes et les logiciels.

En cliquant sur "J'accepte", vous autorisez l'utilisation de cookies, des identifiants d'appareils, des balises web ou d'autres technologies similaires. Vos paramètres peuvent être modifiés dans le navigateur de votre appareil.

Dans certains cas, des intérêts légitimes peuvent être invoqués plutôt qu'un consentement. Vous pouvez en savoir plus à ce sujet dans notre Politique de confidentialité et de cookies.